Temp
61 53 50 54 57 61 60 59 55 55 63 59 57 56 54 56 55 55 56 58 60 60 61 61 59 58 56 56 57 57 57 58 59 58 57 58 58 59 61 62 65 65 65 65
56 51 61 65 64 62 62 57 54 59 64 61 58 55 61 57 57 59 61 60 61 61 60 60 60 58 57 57 58 58 58 58 59 60 61 61 61 62 64 63 63 64 65 65
53 59 66 64 62 60 60 57 55 57 61 64 55 53 56 61 63 63 66 65 65 62 61 59 61 60 58 57 58 60 60 60 61 62 62 62 63 62 62 63 63 63 64 65
57 65 63 63 60 62 53 64 64 61 55 45 56 41 56 60 62 64 66 64 64 63 65 63 62 60 58 59 61 62 63 63 63 65 63 62 62 62 63 61 62 62 64 63
55 59 59 58 62 65 58 65 62 60 52 48 51 43 50 62 58 61 64 66 64 65 64 65 64 63 62 63 63 64 64 64 65 65 65 65 64 64 65 64 62 61 62 62
60 68 65 63 69 67 68 63 60 57 51 39 50 46 45 53 60 64 66 66 66 65 65 66 67 67 64 64 65 65 65 65 66 66 66 65 66 64 63 63 62 62 62 62
58 60 66 69 61 64 61 53 39 34 35 34 54 50 53 59 64 65 65 64 62 65 67 65 65 66 67 64 64 65 65 65 66 67 67 67 66 67 65 61 61 60 59 59
47 44 60 66 63 57 57 54 39 33 30 36 54 43 53 63 66 68 70 68 65 67 69 67 67 67 67 68 66 66 66 66 68 68 69 70 69 66 64 63 61 62 61 60
47 49 64 66 67 64 57 50 58 46 44 35 44 54 60 62 64 65 68 68 67 68 69 69 68 69 68 69 68 67 67 68 70 69 68 68 66 65 64 63 61 60 60 59
54 46 61 64 67 64 61 62 46 46 35 32 43 45 46 57 64 66 63 63 66 68 70 71 70 69 71 71 70 68 69 69 70 70 68 68 66 66 65 60 59 60 59 59
60 52 51 62 57 56 54 53 52 52 48 34 32 39 53 56 63 64 62 66 65 65 67 68 73 72 72 73 71 68 68 69 70 70 70 68 65 63 60 61 61 59 57 57
60 53 46 52 63 67 62 57 54 39 42 44 38 40 62 60 62 65 65 67 66 68 68 68 67 71 73 73 73 71 70 70 69 70 68 64 61 60 59 59 58 57 55 54
59 52 40 45 55 60 57 57 58 56 50 42 35 40 63 64 66 66 64 64 67 67 66 67 68 67 68 71 72 72 68 66 63 62 61 59 57 55 54 52 53 52 52 50
61 51 48 41 46 55 50 56 58 55 40 43 42 48 59 61 62 63 66 65 65 67 68 66 66 66 66 62 60 62 64 64 62 58 57 54 53 51 50 51 50 50 49 48
59 50 52 53 57 59 57 56 57 55 54 46 49 50 56 60 64 64 67 67 66 66 66 67 65 64 59 58 57 56 55 55 55 54 52 50 50 51 50 49 48 48 48 47
58 46 51 48 55 57 54 58 55 57 57 54 53 52 64 65 66 66 68 67 67 67 67 67 68 66 61 57 54 54 53 52 53 52 50 51 50 49 49 48 48 48 47 47
47 46 44 41 52 52 41 50 55 57 60 57 49 57 62 64 65 66 64 66 66 67 67 65 66 64 60 56 55 52 52 52 52 52 52 52 52 50 49 49 49 48 46 45
44 47 43 34 41 33 50 61 61 58 61 62 62 62 64 66 64 63 65 65 64 65 65 62 63 60 58 56 53 53 54 54 54 54 54 53 52 51 50 50 46 44 43 41
46 45 35 35 38 45 52 57 57 55 54 63 61 62 64 64 59 57 65 64 62 62 59 57 59 59 56 55 55 54 53 55 55 53 52 52 51 48 47 46 47 47 46 43
44 45 37 33 30 32 45 58 64 63 46 62 61 61 61 60 49 53 61 61 59 59 60 59 59 58 56 55 56 53 52 52 51 51 51 50 50 49 49 48 48 46 44 44
34 36 33 33 32 37 53 62 63 44 44 62 62 61 60 56 56 59 59 58 59 58 58 58 58 56 56 57 55 52 52 50 52 51 51 50 50 50 50 45 43 42 41 39
37 33 32 34 30 30 56 58 51 54 59 62 61 60 57 58 57 59 59 58 58 57 57 57 55 54 55 56 55 52 50 52 52 51 50 49 49 49 47 42 41 41 38 34
35 41 37 41 38 52 55 55 59 60 60 60 60 63 60 55 56 58 56 56 56 55 54 55 54 52 53 55 55 50 50 51 50 48 47 46 46 46 44 41 38 37 35 31
49 53 45 44 49 53 56 58 58 57 58 61 66 62 61 59 58 55 54 54 54 54 53 53 52 51 50 52 53 51 50 50 48 45 44 42 41 40 39 40 38 35 30 28
47 52 48 45 52 55 57 59 58 57 59 62 64 63 62 57 56 57 55 53 55 54 54 53 52 50 49 51 49 50 50 48 45 44 42 41 39 36 33 32 32 29 27 29
50 47 41 39 51 52 55 61 61 58 60 62 59 61 62 59 57 56 53 53 53 53 51 51 49 48 47 48 46 46 48 47 44 40 39 34 34 33 33 31 29 31 30 32
MSLP
1008.05 1008.56 1008.12 1008.22 1007.98 1007.36 1007.23 1006.84 1006.25 1005.74 1005.52 1006.14 1006.73 1007.48 1008.43 1008.92 1009.31 1009.21 1010.08 1011.00 1011.31 1012.45 1013.09 1013.88 1014.70 1015.26 1015.87 1016.26 1016.44 1016.81 1017.06 1017.58 1017.85 1018.44 1018.89 1019.33 1019.58 1019.59 1019.61 1019.48 1019.36 1019.67 1019.92 1020.43
1008.19 1007.54 1007.36 1007.58 1007.15 1007.10 1006.65 1006.01 1005.81 1005.51 1005.33 1005.94 1006.20 1006.32 1006.99 1008.30 1007.77 1008.04 1008.42 1009.88 1010.44 1011.33 1012.37 1013.13 1013.83 1014.47 1015.18 1015.58 1016.05 1016.34 1016.76 1017.21 1017.60 1018.03 1018.59 1018.82 1018.96 1019.08 1018.98 1019.13 1019.18 1019.26 1019.54 1019.87
1007.14 1006.06 1006.68 1006.60 1006.12 1006.04 1005.68 1005.47 1005.40 1005.30 1005.17 1005.09 1005.97 1006.31 1007.29 1007.29 1007.01 1007.36 1007.53 1008.46 1009.31 1010.17 1011.10 1012.19 1012.96 1013.61 1014.46 1014.92 1015.23 1015.62 1016.08 1016.71 1017.22 1017.64 1018.24 1018.56 1018.85 1018.82 1018.83 1018.67 1018.79 1018.77 1018.91 1019.12
1006.46 1005.81 1005.85 1005.47 1005.39 1005.12 1005.20 1004.90 1004.74 1004.97 1005.55 1005.81 1005.43 1006.12 1005.87 1006.01 1005.59 1005.71 1006.56 1007.49 1008.14 1009.26 1010.05 1011.00 1011.79 1012.66 1013.27 1013.94 1014.53 1014.96 1015.48 1016.03 1016.64 1016.95 1017.41 1017.63 1017.59 1017.71 1017.65 1017.71 1017.98 1018.20 1018.33 1018.55
1005.13 1004.82 1004.91 1004.74 1004.27 1004.23 1004.63 1004.65 1004.87 1005.31 1005.85 1006.07 1005.87 1006.42 1005.22 1004.80 1004.72 1004.96 1005.62 1006.50 1007.35 1007.64 1008.59 1009.44 1010.27 1011.18 1011.83 1012.60 1013.40 1014.04 1014.67 1015.10 1015.43 1015.78 1015.95 1016.10 1016.22 1016.30 1016.44 1016.88 1017.25 1017.62 1017.89 1018.23
1004.71 1004.16 1003.92 1003.70 1003.51 1003.63 1004.16 1004.72 1005.14 1005.61 1006.49 1006.85 1006.42 1006.20 1004.82 1004.30 1003.81 1003.92 1004.59 1005.13 1005.98 1006.79 1007.75 1008.37 1009.12 1010.22 1010.99 1011.70 1012.35 1012.91 1013.43 1013.81 1014.19 1014.60 1014.83 1014.96 1015.08 1015.38 1015.86 1016.19 1016.53 1016.89 1017.34 1017.69
1004.42 1003.75 1003.18 1002.88 1002.92 1003.28 1003.94 1005.08 1006.33 1007.03 1007.60 1007.29 1006.43 1005.63 1004.05 1002.72 1002.31 1002.34 1002.94 1003.86 1004.67 1005.43 1006.56 1007.47 1008.30 1009.06 1009.86 1010.62 1011.28 1011.98 1012.44 1012.76 1013.14 1013.41 1013.62 1013.68 1013.89 1014.15 1014.67 1015.26 1015.82 1016.37 1016.87 1017.35
1004.06 1003.66 1002.62 1002.12 1002.18 1002.93 1003.66 1004.91 1006.49 1007.17 1008.00 1007.74 1006.49 1005.31 1003.46 1002.14 1001.30 1001.46 1001.77 1002.60 1003.32 1004.53 1005.32 1005.96 1006.54 1007.32 1008.10 1008.95 1009.95 1010.85 1011.25 1011.49 1011.85 1012.17 1012.06 1012.16 1012.54 1013.15 1013.50 1014.06 1014.75 1015.24 1015.75 1016.20
1003.05 1002.93 1002.07 1001.79 1001.70 1002.40 1003.38 1004.19 1005.02 1006.46 1007.67 1008.08 1007.01 1004.86 1003.46 1002.42 1001.78 1001.44 1001.52 1001.74 1002.43 1003.39 1004.27 1004.72 1005.36 1006.04 1006.72 1007.30 1007.94 1008.69 1009.59 1010.20 1010.87 1011.22 1011.42 1011.56 1011.62 1012.10 1011.94 1012.78 1013.68 1014.20 1015.43 1016.27
1002.45 1002.72 1002.10 1001.68 1001.60 1001.76 1002.66 1003.80 1004.84 1005.95 1007.39 1008.01 1006.52 1005.32 1004.12 1003.70 1002.48 1001.62 1001.66 1001.77 1002.11 1002.82 1003.31 1003.72 1004.20 1004.80 1005.24 1005.50 1005.92 1007.05 1007.73 1008.37 1009.15 1009.94 1010.33 1010.56 1010.83 1010.97 1011.66 1012.70 1014.35 1014.81 1014.15 1015.57
1002.44 1002.82 1002.22 1001.72 1001.15 1001.54 1002.34 1003.23 1004.18 1005.24 1006.39 1007.12 1006.71 1005.42 1003.81 1003.36 1002.33 1001.73 1001.85 1001.69 1001.89 1001.98 1002.36 1002.82 1003.14 1003.43 1003.72 1004.06 1005.11 1006.09 1006.86 1007.29 1008.17 1008.69 1008.90 1009.55 1010.29 1010.86 1012.16 1012.60 1013.20 1014.05 1015.06 1015.27
1001.35 1002.18 1002.25 1001.22 1000.76 1000.25 1001.27 1002.23 1003.29 1004.57 1005.61 1006.03 1006.36 1005.06 1003.27 1002.59 1002.03 1001.68 1001.41 1001.55 1001.55 1001.86 1001.90 1002.03 1002.76 1003.06 1003.39 1003.53 1004.36 1005.14 1005.69 1006.52 1007.60 1008.12 1008.57 1009.30 1010.39 1010.80 1011.99 1011.60 1012.94 1014.59 1015.60 1015.60
1000.89 1001.31 1002.19 1001.46 1001.15 1000.26 1000.45 1001.52 1002.51 1003.38 1004.38 1005.18 1005.35 1004.54 1003.11 1002.55 1001.78 1001.23 1001.13 1001.43 1001.38 1001.68 1001.95 1001.94 1002.16 1002.79 1002.94 1003.32 1004.14 1004.87 1006.47 1007.56 1008.57 1009.31 1008.80 1009.39 1010.21 1011.53 1012.53 1013.38 1014.42 1014.95 1015.68 1015.78
999.89 1000.83 1000.92 1001.09 1001.45 1000.88 1000.87 1001.13 1001.89 1002.52 1003.54 1004.26 1004.09 1003.30 1002.61 1002.00 1001.66 1001.21 1000.68 1001.00 1001.11 1001.43 1001.78 1002.04 1002.47 1002.88 1003.19 1004.20 1004.62 1005.62 1006.49 1007.23 1008.81 1010.12 1009.46 1009.92 1010.98 1012.17 1012.99 1013.60 1014.18 1014.70 1015.26 1015.84
1000.40 1000.47 1000.86 1001.37 1001.25 1000.98 1001.03 1001.03 1001.04 1001.39 1001.97 1002.54 1002.88 1003.14 1001.87 1001.15 1000.54 1000.40 1000.45 1000.46 1001.18 1001.28 1001.69 1001.92 1002.41 1003.27 1004.05 1005.25 1005.97 1006.83 1007.48 1008.52 1009.65 1009.83 1009.83 1010.46 1011.69 1012.43 1013.26 1013.72 1014.00 1014.81 1015.53 1016.30
1001.04 1001.22 1001.29 1001.56 1001.52 1001.04 1000.87 1000.34 1000.24 1000.30 1000.61 1001.07 1001.51 1001.65 1000.77 999.83 999.80 999.56 999.61 1000.09 1000.28 1000.63 1001.26 1001.65 1002.28 1003.25 1004.06 1005.23 1006.64 1007.52 1008.02 1008.48 1008.80 1009.23 1010.12 1010.94 1011.88 1012.70 1013.19 1013.60 1014.27 1015.11 1015.74 1016.43
1004.59 1002.39 1002.32 1001.91 1001.99 1001.56 1000.37 999.52 999.71 999.75 999.64 999.72 1000.22 1000.03 999.40 999.26 999.13 999.12 999.10 999.62 1000.07 1000.42 1000.98 1001.64 1002.39 1003.24 1004.15 1004.94 1005.92 1007.41 1008.47 1009.12 1009.40 1009.69 1010.59 1011.37 1012.04 1012.45 1013.09 1013.78 1014.60 1015.42 1016.21 1017.03
1005.76 1003.55 1003.03 1003.14 1002.78 1001.67 999.45 998.78 998.76 998.97 998.76 998.51 998.54 998.50 998.41 998.29 998.29 998.33 998.33 999.05 999.88 1000.40 1000.88 1001.52 1002.31 1003.25 1004.26 1005.17 1006.06 1006.93 1007.86 1008.64 1009.49 1010.22 1010.79 1011.43 1011.86 1012.53 1013.53 1014.28 1015.19 1016.17 1016.89 1017.53
1005.55 1003.97 1004.10 1003.84 1003.13 1001.19 999.41 998.63 998.36 998.39 998.34 997.79 997.85 997.91 998.01 997.99 998.57 998.77 998.65 998.92 999.75 1000.35 1001.20 1001.87 1002.55 1003.38 1004.32 1005.13 1005.95 1006.72 1007.74 1008.42 1009.39 1010.24 1010.92 1011.55 1012.10 1013.01 1013.91 1014.80 1015.63 1016.39 1017.09 1017.73
1006.04 1003.97 1004.04 1004.83 1003.92 1001.44 999.65 998.80 998.21 998.15 997.62 997.41 997.31 997.73 997.82 998.13 999.16 999.29 999.17 999.63 1000.42 1001.06 1001.65 1002.33 1003.09 1004.03 1004.97 1005.73 1006.14 1006.95 1007.82 1008.59 1009.49 1010.18 1011.00 1011.90 1012.69 1013.46 1014.16 1014.93 1015.73 1016.38 1017.06 1017.75
1005.93 1004.97 1005.67 1005.41 1004.49 1001.83 999.42 998.19 998.10 998.61 998.47 997.37 997.07 997.29 997.53 998.27 998.48 998.72 999.26 1000.04 1000.57 1001.29 1002.10 1002.89 1003.64 1004.25 1004.98 1005.73 1006.30 1007.14 1008.01 1008.93 1009.55 1010.40 1011.31 1012.09 1012.78 1013.42 1014.17 1015.01 1015.71 1016.39 1017.27 1018.12
1004.03 1004.57 1005.31 1005.55 1004.53 1002.44 999.70 998.83 998.27 998.57 998.46 997.88 997.36 997.32 997.61 997.87 998.49 999.18 999.74 1000.30 1000.96 1001.56 1002.37 1003.09 1003.92 1004.64 1005.23 1005.83 1006.41 1007.35 1008.24 1008.91 1009.62 1010.53 1011.39 1012.15 1012.68 1013.32 1014.16 1015.01 1015.84 1016.58 1017.39 1018.26
1003.09 1002.63 1003.20 1003.45 1002.46 1000.83 999.71 999.02 998.46 999.00 999.60 998.74 997.90 997.02 997.49 999.03 999.45 999.37 1000.07 1000.49 1001.07 1001.69 1002.54 1003.32 1004.06 1004.86 1005.54 1006.04 1006.63 1007.69 1008.57 1009.14 1009.99 1010.81 1011.69 1012.38 1012.99 1013.75 1014.51 1015.34 1016.23 1017.15 1017.92 1018.75
1001.26 1001.08 1001.26 1001.26 1000.95 1000.32 999.56 998.98 998.91 999.48 1000.00 999.23 998.17 997.42 998.04 998.67 998.83 1000.58 1000.42 1000.76 1001.38 1002.13 1002.88 1003.64 1004.55 1005.33 1006.02 1006.57 1007.35 1008.26 1009.24 1009.98 1010.83 1011.78 1012.57 1013.21 1013.79 1014.54 1015.19 1016.00 1016.78 1017.61 1018.41 1019.12
1000.17 1000.18 1000.29 1000.53 1000.06 999.63 998.97 998.51 998.95 999.48 999.40 998.79 997.97 997.38 997.50 998.00 998.88 999.83 1000.64 1000.91 1001.42 1002.11 1002.93 1003.80 1004.80 1005.63 1006.38 1006.92 1007.85 1008.78 1009.63 1010.43 1011.52 1012.49 1013.26 1013.92 1014.56 1015.39 1016.38 1017.19 1017.93 1018.79 1019.38 1019.35
999.72 999.27 999.95 999.98 999.99 999.88 999.10 998.54 998.71 999.01 999.17 998.62 998.24 997.67 997.50 997.94 998.89 999.53 1000.07 1000.83 1001.54 1002.62 1003.45 1004.48 1005.38 1006.12 1007.03 1007.69 1008.45 1009.26 1010.10 1011.02 1012.22 1013.32 1014.01 1014.62 1015.50 1016.29 1016.94 1017.98 1019.11 1019.56 1019.98 1020.27
Wind_Speed
6 5 13 12 14 18 17 13 8 4 6 6 9 7 13 12 6 9 11 11 13 17 17 17 16 15 15 13 12 13 13 12 11 9 9 8 8 5 4 4 6 8 6 7
6 16 15 15 17 16 17 6 8 2 4 4 8 9 16 17 15 12 15 17 17 12 19 18 18 16 15 15 14 14 14 14 11 9 9 6 6 5 6 5 6 8 10 9
14 13 18 19 19 17 9 6 9 7 4 6 2 9 11 15 9 14 18 17 16 20 20 19 19 19 17 16 15 14 15 16 15 14 9 7 7 5 7 6 5 7 10 10
11 18 20 18 21 7 6 10 8 7 3 5 4 6 3 11 13 12 18 16 16 20 16 21 21 20 20 18 16 16 16 17 17 18 14 14 11 10 8 6 6 6 10 10
13 7 20 20 13 7 9 9 2 4 6 5 7 3 7 5 7 9 17 15 12 21 21 20 21 22 20 21 20 18 18 18 20 17 15 12 11 10 9 8 9 7 8 9
12 14 14 16 10 9 6 6 4 3 2 6 8 6 6 6 7 7 13 21 22 16 21 21 21 21 20 18 18 18 20 20 20 18 18 17 17 12 10 11 10 9 9 9
18 20 16 11 7 6 5 1 3 5 4 7 4 8 9 11 10 9 14 24 18 20 20 21 22 20 19 22 21 20 22 22 21 20 19 19 14 16 16 10 10 10 8 7
13 16 18 7 14 6 7 8 6 6 4 5 3 4 5 7 7 7 11 16 22 23 21 23 25 24 23 22 23 23 23 22 22 22 23 19 16 9 10 13 7 8 9 9
13 18 6 11 5 8 5 7 10 4 1 3 5 7 8 3 6 4 7 5 21 24 22 24 24 23 23 24 25 25 24 22 21 20 15 15 17 15 13 12 11 7 5 5
5 10 19 10 10 9 11 5 2 1 6 4 6 6 4 7 6 3 5 6 7 12 18 20 21 23 22 25 25 25 25 25 23 18 14 14 15 17 9 7 7 6 6 10
21 8 7 18 10 15 5 9 3 6 5 5 1 5 6 8 6 7 7 8 7 4 5 13 18 23 24 23 22 23 23 23 21 21 19 16 12 8 6 8 5 5 5 9
15 6 11 14 14 22 16 15 10 6 5 4 6 7 8 9 8 6 10 9 8 8 6 2 8 15 19 22 20 22 22 21 16 16 15 7 7 7 8 12 9 8 8 6
14 16 5 6 9 4 13 6 6 7 5 6 6 5 8 8 8 8 8 7 8 8 8 5 2 5 8 11 15 15 9 9 3 7 9 9 10 8 9 11 8 10 9 9
17 8 16 14 6 4 6 10 11 9 3 3 6 5 8 9 11 8 9 9 10 9 10 8 5 3 6 12 10 10 15 16 9 9 10 13 13 12 10 9 10 10 9 10
10 19 15 8 18 12 16 11 15 18 15 10 7 12 9 10 8 9 9 8 7 8 8 10 9 7 8 13 12 13 12 12 11 10 12 12 12 12 10 11 11 11 10 9
3 4 15 19 12 11 11 16 7 8 10 11 15 19 18 11 8 7 9 9 10 8 9 10 11 13 12 13 13 12 10 9 11 12 12 11 11 11 11 12 11 11 10 9
11 6 6 13 12 9 15 12 14 14 14 12 15 15 10 11 8 9 8 11 10 9 9 9 11 13 12 12 15 14 13 10 10 12 12 12 12 13 12 12 11 11 10 9
16 5 4 5 5 14 5 10 8 11 12 7 5 3 6 7 8 4 7 11 9 9 9 8 12 13 13 12 13 13 13 13 12 12 12 12 13 13 12 11 11 9 9 9
18 3 2 6 10 5 16 7 5 7 11 7 6 5 7 6 4 2 5 5 8 7 7 7 8 12 13 14 14 14 13 13 12 12 13 13 12 13 13 13 13 10 9 6
14 3 7 3 2 16 3 8 7 5 10 5 2 6 5 3 5 6 7 7 7 8 11 13 12 12 14 12 13 13 12 12 12 13 11 11 12 12 13 11 11 7 6 5
2 4 4 3 3 8 6 9 4 7 5 7 5 3 3 6 8 6 8 6 9 9 12 10 11 12 12 13 13 13 13 12 11 13 13 12 10 12 11 8 5 6 9 10
8 7 4 3 4 6 6 8 9 1 8 7 7 4 2 7 8 11 9 13 12 12 12 11 11 10 10 13 13 13 12 11 14 13 12 10 11 9 9 9 7 10 9 9
3 8 9 10 9 10 2 4 3 13 12 5 7 3 9 5 3 9 9 11 10 12 9 8 10 9 8 10 11 11 11 13 12 12 10 9 10 9 8 10 9 8 8 6
6 8 5 6 7 13 8 1 4 10 15 16 7 5 5 8 8 5 6 8 9 9 9 7 9 9 7 8 11 11 10 12 11 9 8 7 9 9 7 7 6 7 6 5
6 10 4 3 8 4 4 7 9 4 20 17 10 4 6 8 11 13 9 8 9 10 8 9 10 8 8 10 11 12 12 11 11 10 8 8 7 9 9 8 6 6 4 4
4 6 6 6 9 7 6 6 9 15 14 11 9 11 4 10 13 10 9 8 8 9 6 8 8 9 9 11 11 10 10 12 11 9 7 5 7 7 8 8 8 13 10 14
Wind_Direction
211 210 234 222 224 241 260 277 320 236 237 150 238 232 174 192 214 185 207 178 171 167 166 160 161 159 148 159 160 159 152 162 155 165 172 186 207 212 226 229 202 189 173 182
215 225 227 240 253 257 266 291 290 2 37 180 283 279 185 184 213 204 181 172 177 166 163 164 163 164 162 166 170 165 167 167 172 170 185 190 195 224 225 221 208 190 183 186
205 232 214 234 251 259 257 256 263 256 249 267 270 301 159 208 227 182 176 174 170 162 159 169 169 166 164 173 176 172 170 172 180 185 183 200 209 214 203 212 211 197 188 187
231 231 247 237 240 249 275 260 283 284 191 228 158 246 205 186 214 193 164 171 167 166 168 166 172 166 169 175 178 179 181 183 192 191 195 202 200 199 204 196 199 192 191 187
222 220 228 244 247 206 242 267 318 329 319 359 299 97 254 286 214 181 167 160 171 168 172 174 170 174 176 173 180 184 187 190 197 202 207 204 205 202 196 198 198 190 191 190
242 231 241 240 238 215 260 300 266 233 263 287 264 173 265 219 203 170 167 163 176 184 182 182 180 171 180 179 182 185 188 197 202 205 212 222 204 200 197 203 204 196 189 191
241 248 246 227 227 210 191 129 316 349 355 240 329 329 259 201 203 185 165 174 183 190 187 181 182 185 181 184 188 192 194 200 207 211 214 214 206 203 203 190 192 176 181 191
220 246 237 226 207 202 178 177 169 204 200 261 331 258 273 242 217 198 174 191 186 190 192 185 184 184 186 189 188 193 199 202 204 208 215 215 207 206 200 192 186 185 187 184
199 236 235 224 204 168 236 200 218 154 85 68 253 256 325 273 257 209 187 152 175 186 189 189 187 187 189 191 192 192 199 206 209 211 212 213 215 207 200 192 182 170 155 161
238 219 232 244 210 214 211 206 235 317 150 216 249 248 209 7 336 126 103 92 120 166 193 194 189 191 195 196 196 193 197 201 205 209 210 212 202 210 192 116 108 131 157 179
219 230 269 220 216 210 195 225 208 170 177 199 241 265 205 188 221 197 171 149 140 195 161 185 198 194 196 198 194 196 201 203 202 203 209 215 206 204 114 136 128 182 150 150
198 185 233 250 279 207 201 203 188 151 252 220 157 265 174 189 216 211 172 173 172 161 180 170 127 199 202 203 194 194 199 201 203 211 212 162 67 71 110 106 154 144 143 121
187 216 246 307 267 254 192 205 202 211 151 213 163 244 192 222 244 249 188 174 158 158 153 145 76 109 183 206 202 198 175 109 10 299 149 129 108 112 113 116 124 124 127 117
176 181 215 226 246 184 211 213 220 202 175 227 222 218 247 252 244 228 190 175 180 176 165 157 147 115 79 82 90 109 140 193 172 180 126 118 118 118 118 123 121 115 114 113
185 215 202 216 214 224 235 241 228 219 218 195 253 273 231 241 237 184 175 196 179 185 175 168 164 141 103 94 92 95 95 111 135 126 109 107 113 115 116 109 103 106 109 114
286 235 198 222 241 246 235 243 261 252 228 201 207 233 242 238 213 206 177 168 176 179 192 178 160 135 130 118 110 104 103 103 106 103 107 110 111 112 113 111 110 113 112 113
294 171 169 227 221 255 264 219 217 256 256 193 205 219 219 231 212 217 195 182 178 178 168 157 157 141 139 137 131 124 121 119 114 118 126 130 128 120 120 119 120 120 117 116
291 247 147 182 116 223 233 182 199 224 249 248 246 273 233 212 236 199 183 169 176 157 146 132 142 138 138 132 123 124 126 126 128 134 136 129 128 124 128 127 119 117 122 130
303 172 98 155 205 277 259 238 200 219 269 226 224 253 259 275 108 33 88 91 146 142 118 127 124 128 130 132 134 132 135 134 140 137 137 138 130 127 129 132 137 139 145 146
281 39 112 36 201 232 146 246 274 308 260 262 228 266 261 154 142 241 150 122 109 108 127 131 131 124 134 144 139 137 138 136 142 143 135 128 132 133 135 133 141 142 142 132
245 19 54 63 277 295 283 200 208 225 253 271 247 259 288 186 197 181 128 110 132 134 132 123 131 140 143 145 141 136 138 146 141 129 129 133 135 137 139 137 134 123 114 108
168 137 150 131 267 255 263 337 175 39 292 262 282 300 51 142 130 147 152 149 149 141 136 138 135 138 140 142 141 144 149 141 134 136 138 140 141 138 138 128 115 117 116 115
154 174 174 175 203 231 250 299 20 32 327 294 308 19 118 117 332 160 158 152 148 141 140 133 137 133 137 145 146 140 141 135 131 131 134 132 127 124 120 116 119 113 113 118
211 186 179 119 243 240 252 92 10 359 318 303 289 87 167 189 152 219 157 149 148 146 147 132 132 138 132 124 125 130 126 129 128 124 120 104 109 113 100 99 106 111 116 118
202 164 152 4 303 284 234 205 182 343 298 270 279 268 154 161 175 182 185 170 155 149 144 141 142 135 129 127 124 130 134 130 124 124 120 123 111 98 85 73 96 99 55 104
204 188 142 206 236 223 216 201 183 196 224 299 342 342 246 169 188 175 163 158 142 152 131 128 127 124 116 117 116 117 122 125 128 115 116 104 107 110 108 106 88 71 93 97